Torna al catalogo

STARLINK-11287

AttivoComunicazioniVLEO
NORAD 60998·PAYLOAD·🇺🇸 United States

Lanciato Sep 5, 2024 da Cape Canaveral Space Force Station

Loading…

Prossimi Passaggi (prossime 24 ore)

TLE

AggiornatoSource: CelesTrak SupGP

Epoca: Sep 14, 2026, 22:37 UTC

1 60998C 24158J   26257.94284722  .00092957  00000+0  76552-3 0  2578
2 60998  53.1568  68.4424 0001021  78.5460  51.8533 15.69669277    18

Traccia STARLINK-11287 in tempo reale con AllMySat

Download on the App Store